SCP
0 0 0 0 0 0 0 0 0 0 0 0 0 0 0 0 0 0 0 0 0 0
-0 0 0 0 0 0 0 0 0 0 0 0 0 0 0 0 0 0 0 0 0 0
0 0 0 0 0 0 0 0 0 0 0 0 0 0 0 0 0 0 0 0 0 0
0 0 0 0 0 0 0 0 0 0 0 0 0 0 0 0 0 0 0 0 0 0
0 0 0 0 0 0 0 0 0 0 0 0 0 0 0 0 0 0 0 0 0 0
0 0 0 0 0 0 0 0 0 0 0 0 0 0 -0 -0 -0 -0 -0 -0 0 0
0 0 0 0 0 0 0 0 -0 -0 -0 -0 -0 -0 -0 -0 -0 -0 -0 -0 -0 0
0 0 0 0 0 0 0 0 0 0 0 0 -0 -0 -0 -0 -0 -0 0 0 0 0
0 0 0 0 0 0 0 0 0 0 0 0 0 0 0 0 0 0 0 0 0 0
0 0 0 0 0 0 0 0 0 0 0 0 0 0 0 0 0 0 0 0 0 0
0 0 0 0 0 0 0 0 0 0 0 0 0 0 0 0 0 0 0 0 0 0
0 0 0 0 0 0 0 0 0 0 0 0 0 0 0 0 0 0 0 0 0 0
0 0 0 0 0 0 0 0 0 0 0 0 0 0 0 0 0 0 0 0 0 0
0 0 0 0 0 0 0 0 0 0 0 0 0 0 0 0 0 0 0 0 0 0
Wind_Speed_500mb
19 22 24 28 28 28 27 28 29 30 31 31 32 33 33 33 36 45 52 60 65 68
17 18 21 23 26 31 30 29 29 32 34 37 37 37 39 40 38 38 41 48 58 64
18 21 23 26 27 31 37 39 41 43 45 47 47 46 44 46 47 49 46 46 47 49
21 23 26 28 32 34 38 42 44 47 50 53 56 59 60 58 57 59 61 57 57 54
26 30 35 38 41 44 46 48 52 55 60 63 68 72 75 76 75 75 74 71 70 71
35 41 46 51 54 56 59 62 65 68 72 76 79 83 84 86 88 90 90 87 83 82
38 42 47 52 56 59 64 71 78 85 93 96 99 97 96 94 94 97 99 99 98 97
43 47 52 56 59 63 69 76 84 92 98 102 105 106 103 96 96 99 103 105 108 108
48 55 59 62 66 74 83 92 98 100 103 107 108 106 104 95 97 103 108 114 114 112
53 59 60 65 74 82 89 93 99 103 104 107 109 109 107 88 87 103 110 115 119 122
57 59 64 73 79 83 88 93 97 102 104 108 109 103 97 86 89 102 108 108 110 111
58 64 71 75 81 86 91 94 97 100 102 102 101 89 80 69 76 85 91 87 87 86
62 70 73 78 82 84 88 94 96 99 97 94 92 80 71 59 64 74 79 81 74 70
64 68 73 77 78 83 87 90 92 94 91 85 76 69 62 55 59 70 80 85 86 81
Wind_Direction_500mb
44 42 38 36 27 21 20 17 11 6 1 356 350 348 343 324 302 289 281 274 267 265
34 29 28 23 14 7 0 359 355 349 345 343 340 338 335 333 330 324 312 296 286 277
14 8 1 354 347 344 339 337 336 335 333 331 332 329 325 322 320 317 315 314 312 301
347 347 342 339 335 332 330 328 328 326 324 322 322 321 320 318 316 312 309 308 306 304
333 332 331 331 330 327 322 322 321 319 318 316 314 313 313 312 310 308 305 303 300 298
324 323 324 326 326 324 322 320 318 316 313 311 309 307 306 306 305 302 301 298 295 292
312 310 312 313 313 313 314 314 313 313 311 310 309 306 304 303 300 297 295 294 292 290
305 307 309 309 308 309 309 309 308 307 305 304 304 305 307 306 302 297 292 289 288 287
297 303 306 307 308 310 311 310 308 307 306 304 303 303 302 301 297 293 291 289 287 284
296 301 302 305 307 308 308 308 307 306 306 304 303 301 300 299 291 288 286 285 285 284
298 299 303 307 309 309 309 309 308 308 306 304 303 303 300 297 291 287 285 284 281 279
299 304 309 311 312 313 312 311 311 309 309 309 308 309 306 300 294 291 290 289 289 289
305 309 312 314 314 314 313 313 313 312 314 312 308 309 307 300 295 295 297 297 293 292
308 311 314 314 315 316 316 315 315 317 313 308 311 315 314 300 295 293 296 299 299 295
Wind_Speed_850mb
19 22 24 28 28 28 27 28 29 30 31 31 32 33 33 33 36 45 52 60 65 68
17 18 21 23 26 31 30 29 29 32 34 37 37 37 39 40 38 38 41 48 58 64
18 21 23 26 27 31 37 39 41 43 45 47 47 46 44 46 47 49 46 46 47 49
21 23 26 28 32 34 38 42 44 47 50 53 56 59 60 58 57 59 61 57 57 54
26 30 35 38 41 44 46 48 52 55 60 63 68 72 75 76 75 75 74 71 70 71
35 41 46 51 54 56 59 62 65 68 72 76 79 83 84 86 88 90 90 87 83 82
38 42 47 52 56 59 64 71 78 85 93 96 99 97 96 94 94 97 99 99 98 97
43 47 52 56 59 63 69 76 84 92 98 102 105 106 103 96 96 99 103 105 108 108
48 55 59 62 66 74 83 92 98 100 103 107 108 106 104 95 97 103 108 114 114 112
53 59 60 65 74 82 89 93 99 103 104 107 109 109 107 88 87 103 110 115 119 122
57 59 64 73 79 83 88 93 97 102 104 108 109 103 97 86 89 102 108 108 110 111
58 64 71 75 81 86 91 94 97 100 102 102 101 89 80 69 76 85 91 87 87 86
62 70 73 78 82 84 88 94 96 99 97 94 92 80 71 59 64 74 79 81 74 70
64 68 73 77 78 83 87 90 92 94 91 85 76 69 62 55 59 70 80 85 86 81
Wind_Direction_850mb
44 42 38 36 27 21 20 17 11 6 1 356 350 348 343 324 302 289 281 274 267 265
34 29 28 23 14 7 0 359 355 349 345 343 340 338 335 333 330 324 312 296 286 277
14 8 1 354 347 344 339 337 336 335 333 331 332 329 325 322 320 317 315 314 312 301
347 347 342 339 335 332 330 328 328 326 324 322 322 321 320 318 316 312 309 308 306 304
333 332 331 331 330 327 322 322 321 319 318 316 314 313 313 312 310 308 305 303 300 298
324 323 324 326 326 324 322 320 318 316 313 311 309 307 306 306 305 302 301 298 295 292
312 310 312 313 313 313 314 314 313 313 311 310 309 306 304 303 300 297 295 294 292 290
305 307 309 309 308 309 309 309 308 307 305 304 304 305 307 306 302 297 292 289 288 287
297 303 306 307 308 310 311 310 308 307 306 304 303 303 302 301 297 293 291 289 287 284
296 301 302 305 307 308 308 308 307 306 306 304 303 301 300 299 291 288 286 285 285 284
298 299 303 307 309 309 309 309 308 308 306 304 303 303 300 297 291 287 285 284 281 279
299 304 309 311 312 313 312 311 311 309 309 309 308 309 306 300 294 291 290 289 289 289
305 309 312 314 314 314 313 313 313 312 314 312 308 309 307 300 295 295 297 297 293 292
308 311 314 314 315 316 316 315 315 317 313 308 311 315 314 300 295 293 296 299 299 295